Tracking 33068 objects as of 25-Jan-2026
HD Live streaming from Space Station
objects crossing your sky now

FENGYUN 1C DEB

Track FENGYUN 1C DEB now!
10-day predictions


NORAD ID: 31297
Int'l Code: 1999-025BPF
Perigee: 611.3 km
Apogee: 807.3 km
Inclination: 98.9 °
Period: 98.8 minutes
Semi major axis: 7080 km
RCS: 0.0028 m2 (small)
Launch date: May 10, 1999
Source: People's Republic of China (PRC)
Launch site: Taiyaun Space Center, China (TSC)

Note: This is SATELLITE DEBRIS
Your satellite tracking list
Your tracking list is empty




NASA's NSSDC Master Catalog

Two Line Element Set (TLE):
1 31297U 99025BPF 26024.16432052  .00002602  00000-0  51681-3 0  9998
2 31297  98.9373 169.1419 0138416 354.3738 186.4615 14.57235220999335
Source of the keplerian elements: AFSPC